Погода в Кусье-Александровском

Россия / Пермский край     58°17′10″N   58°22′22″E
темп.,
°C
ветер,
м/с
пор.,
м/с
влажн.,
%
обл.,
%
осадки,
мм/ч
давл.,
гПа
погр.,
м
16 мая, вс
вс1623:00+15ююв389311 7.1 1019234
02:00+16ююз31485100 0.0 1017299
05:00+16зюз31382100 0.0 1017314
08:00+19зюз31073100 0.0 1017334
11:00+25зюз584339 0.0 1017835
14:00+29зюз610269 0.0 10172745
17:00+29зюз592633 0.0 10163705
20:00+25юз613375 0.0 1015838
17 мая, пн
пн1723:00+21юз51449100 0.0 1015449
02:00+18юз312645 0.0 1015313
05:00+15юз237371 0.0 101662
08:00+20юз485727 0.0 1016376
11:00+24з5124699 0.1 10161797
14:00+26з7133849 0.0 10152740
17:00+27зсз6133226 0.0 10142931
20:00+22з41043100 0.0 1014537
18 мая, вт
вт1823:00+17з3136278 0.0 1015376
02:00+14з11780 0.0 101612
05:00+13з26815 0.0 1016155
08:00+17сз477242 0.0 1017859
11:00+18ссз565353 0.1 10181514
14:00+19ссв445073 0.0 10201635
17:00+18св45497 0.0 10211415
20:00+16в36510 0.0 1022619
19 мая, ср
ср1923:00+11в39704 0.0 1025326
02:00+8в2882100 0.0 1026195
05:00+7вюв1187100 0.0 102725
08:00+12юв2464100 0.0 1027481
11:00+17юв224278 0.0 1026934
14:00+22юв113114 0.0 10241300
17:00+22ю112999 0.0 10231512
20:00+19ююв1144100 0.0 102311
20 мая, чт
чт2023:00+13юз11566 0.0 102311
02:00+11юв006425 0.0 102310
05:00+10ююв116822 0.0 102411
08:00+16зюз13495 0.0 1023298
11:00+22зюз233268 0.0 10221100
14:00+24з3325100 0.0 10211616
17:00+25з34245 0.0 10201772
20:00+21зюз124318 0.0 102016